TIME,DELAY(SENSOR),PRES,T(CTD),SAL,OXYGEN,RAWTEMP,T(OPTODE),TCPHASE,FLUOR,BETA(BETA700),BETA(BETA412),BETA(BETA440),CDOM,C(CSC),ED(ED411.90),ED(ED443.80),ED(ED489.40),ED(ED554.70),LU(LU412.20),LU(LU443.80),LU(LU489.40),LU(LU555.00),COMP,TILTX,TILTX(TILTY),CHECK
1343920313,5802,496.7799987792969000,17.3819007873535160,36.4431991577148440,231.2518005371093800,175.7346038818359400,17.3799896240234380,31.1928806304931640,50,101,97,80,68,14152,2146954715,2147513846,2147268946,2147466770,2147082852,2146954075,2147654884,2147122258,1572,-2,8,62601
1343920428,5806,486.1799926757812500,17.4500007629394530,36.4566001892089840,231.6678924560547000,173.4635009765625000,17.4485092163085940,31.1415405273437500,52,102,98,80,68,14151,2146953243,2147513152,2147270098,2147469833,2147086034,2146958025,2147651584,2147117869,1919,-2,8,46988
1343920545,5804,475.3399963378906000,17.5335006713867200,36.4721984863281250,232.6714019775390600,170.5641021728515600,17.5359897613525400,31.0529899597167970,51,102,98,80,67,14151,2146952073,2147512987,2147266166,2147463030,2147085440,2146955958,2147657435,2147120859,2005,-2,8,15322
1343920672,5804,463.6099853515625000,17.6058006286621100,36.4856986999511700,233.5466003417968800,168.2209014892578000,17.6066894531250000,30.9785804748535160,50,101,98,80,68,14152,2146956790,2147512978,2147266852,2147464393,2147086683,2146956233,2147653824,2147123821,1698,-2,8,58553
1343920799,5808,451.5899963378906000,17.6861991882324220,36.5001983642578100,234.4757995605468800,165.6464996337890600,17.6843891143798830,30.8985996246337900,51,100,98,79,68,14152,2146951844,2147515236,2147268598,2147465261,2147086125,2146957229,2147654089,2147119625,1732,-2,8,1483
1343920916,5809,440.3200073242187500,17.7642993927001950,36.5141983032226560,234.9541931152343800,163.1790924072265600,17.7588596343994140,30.8423309326171880,51,101,96,80,68,14152,2146954697,2147512438,2147266605,2147461659,2147086738,2146957851,2147650770,2147118116,1712,-2,8,31201
1343921031,5806,429.1900024414062500,17.8029994964599600,36.5218009948730500,235.7787017822265600,161.6580963134765600,17.8047790527343750,30.7822303771972660,50,103,98,79,67,14149,2146954377,2147515291,2147267794,2147461604,2147086957,2146957531,2147655350,2147118363,1670,-2,8,11475
1343921146,5804,417.9899902343750000,17.8677997589111330,36.5323982238769500,236.5744018554687500,159.7256011962890600,17.8631191253662100,30.7181205749511720,50,100,98,80,67,14151,2146954294,2147512457,2147269129,2147464978,2147082806,2146954980,2147652754,2147120658,2076,-2,8,17001
1343921263,5805,406.7699890136719000,17.9009990692138670,36.5382995605468750,236.8739929199218800,158.5738067626953000,17.8978996276855470,30.6884803771972660,50,101,98,81,68,14150,2146952283,2147509540,2147267657,2147465892,2147087579,2146957558,2147652982,2147123766,1620,-2,8,51775
1343921378,5806,395.7799987792969000,17.9598007202148440,36.5475997924804700,236.8448028564453000,156.5135955810547000,17.9601001739501950,30.6623497009277340,50,102,98,82,66,14151,2146956068,2147513334,2147265307,2147461321,2147085741,2146953965,2147649627,2147117979,1774,-2,8,4604
1343921493,5805,384.8099975585937500,18.0051994323730470,36.5536994934082000,236.5796051025390600,155.1201019287109400,18.0021896362304700,30.6563701629638670,50,102,99,80,68,14148,2146954953,2147514934,2147267620,2147463881,2147086582,2146954688,2147651766,2147120475,2017,-2,8,13514
1343921610,5804,373.9599914550781000,18.0359001159667970,36.5553016662597660,235.7339019775390600,154.1688995361328000,18.0309104919433600,30.6842498779296880,50,101,98,80,67,14149,2146954285,2147513408,2147266578,2147462848,2147086537,2146950857,2147653403,2147120621,1469,-2,8,35488
1343921725,5806,363.5400085449219000,18.0580005645751950,36.5535011291503900,234.2265014648437500,153.2976989746093800,18.0572204589843750,30.7450008392334000,51,104,98,82,67,14143,2146954761,2147509074,2147266550,2147458624,2147087378,2146956726,2147650889,2147118866,1388,-2,8,9416
1343921854,5804,352.1600036621094000,18.1296997070312500,36.5617980957031250,233.2949981689453000,150.9403991699218800,18.1284294128417970,30.7585697174072270,50,104,100,81,68,14143,2146955337,2147511570,2147267757,2147462134,2147087963,2146956480,2147650112,2147117348,1933,-2,8,10412
1343921981,5804,341.5400085449219000,18.2231998443603500,36.5745010375976560,232.9207000732422000,147.9833068847656200,18.2177696228027340,30.7373504638671880,50,105,99,81,67,14145,2146955904,2147516086,2147265362,2147458121,2147085120,2146960182,2147653440,2147121033,2598,-2,8,43037
1343922120,5804,330.5299987792969000,18.3052997589111330,36.5864982604980500,232.9700012207031200,145.2859039306640600,18.2992706298828120,30.6991100311279300,50,105,98,80,66,14144,2146956278,2147511762,2147269924,2147460370,2147085787,2146959616,2147648064,2147115794,2830,-2,8,11179
1343922261,5804,319.9700012207031000,18.3584003448486330,36.5912017822265600,232.1791992187500000,143.4398956298828000,18.3550701141357420,30.7128391265869140,50,104,98,81,68,14145,2146956050,2147511305,2147269705,2147459273,2147083986,2146955977,2147649389,2147117814,2390,-2,8,43342
1343922424,5804,308.4599914550781000,18.5027008056640620,36.6011009216308600,230.2194976806640600,138.6860046386718800,18.4987697601318360,30.7455101013183600,51,103,99,81,68,14140,2146954331,2147513974,2147269568,2147456841,2147085723,2146956196,2147648420,2147122998,2135,-2,8,2082
1343922559,5807,297.3500061035156000,18.6446990966796880,36.6092987060546900,228.2474060058593800,134.0370025634765600,18.6393508911132800,30.7809200286865230,51,102,98,82,67,14144,2146953069,2147510701,2147267510,2147459008,2147084534,2146951981,2147649353,2147122541,2893,-2,7,29817
1343922674,5803,286.3800048828125000,18.7987003326416000,36.6088981628418000,228.2993927001953000,128.6322021484375000,18.8028602600097660,30.7063503265380860,51,106,98,80,68,14142,2146954203,2147512905,2147269339,2147458550,2147087350,2146960201,2147652342,2147125019,2605,-2,8,58653
1343922791,5803,275.1199951171875000,18.9605998992919920,36.6049003601074200,231.8038940429687500,123.5791015625000000,18.9557895660400400,30.4672794342041000,52,103,97,80,68,14145,2146952694,2147513636,2147270902,2147458377,2147086436,2146960996,2147650020,2147124617,2381,-2,8,55271
1343922906,5804,263.8399963378906000,19.0846996307373050,36.6100997924804700,233.3699035644531200,119.3299026489257800,19.0844497680664060,30.3354892730712900,51,105,99,81,66,14142,2146955126,2147514093,2147275181,2147457142,2147085659,2146957348,2147648722,2147125888,1934,-2,8,15956
1343923021,5805,252.3200073242187500,19.1464996337890620,36.5947990417480500,238.2702941894531200,117.2726974487304700,19.1467609405517580,30.0755805969238280,51,102,99,80,66,14145,2146952905,2147515766,2147271606,2147453814,2147088338,2146963072,2147651401,2147124461,1878,-2,8,49122
1343923138,5806,240.4299926757812500,19.1828994750976560,36.5760002136230500,243.8164062500000000,116.1629028320312500,19.1803703308105470,29.8043403625488280,52,104,99,81,65,14142,2146952914,2147518198,2147278838,2147456374,2147079030,2146962130,2147654125,2147125248,1855,-2,8,30662
1343923253,5802,228.8200073242187500,19.3199996948242200,36.5966987609863300,240.6497955322265600,111.3124008178711000,19.3273391723632800,29.8868103027343750,53,104,98,81,66,14140,2146954496,2147516434,2147285650,2147449984,2147081280,2146968987,2147653668,2147125366,2069,-2,8,21076
1343923368,5802,217.5299987792968800,19.2917003631591800,36.5657005310058600,248.2825012207031200,112.5857009887695300,19.2887496948242200,29.5565891265869140,50,107,99,81,65,14139,2146954048,2147525650,2147292013,2147452617,2147084928,2146967460,2147659254,2147126427,1681,-2,8,7186
1343923485,5801,206.5399932861328000,19.3405990600585940,36.5629005432128900,252.2935943603515600,110.9589996337890600,19.3380508422851560,29.3583507537841800,54,110,99,82,64,14135,2146957174,2147530870,2147302272,2147452708,2147081627,2146970880,2147665673,2147124562,1077,-2,8,13188
1343923588,5806,197.2400054931640600,19.4435005187988280,36.5775985717773440,251.6293945312500000,107.7667007446289000,19.4348201751709000,29.3460597991943360,55,107,98,81,64,14133,2146957888,2147534198,2147321782,2147452342,2147084763,2146977124,2147678025,2147125595,518,-2,8,14828
1343923643,5807,192.2899932861328000,19.4699993133544920,36.5853004455566400,250.8945007324218800,106.5270004272461000,19.4724006652832030,29.3624591827392580,53,106,99,81,65,14133,2146956973,2147539044,2147328667,2147453056,2147080192,2146982061,2147682596,2147126994,787,-2,8,44689
1343923698,5805,187.3600006103515600,19.5168991088867200,36.5941009521484400,250.6197052001953000,105.1370010375976600,19.5145492553710940,29.3566303253173830,53,104,99,81,64,14137,2146957778,2147544905,2147340434,2147456731,2147088868,2146983606,2147689316,2147127661,1225,-2,8,23184
1343923773,5804,181.0200042724609400,19.5338993072509770,36.5867996215820300,251.0249938964843800,104.6210021972656200,19.5301990509033200,29.3321704864501950,63,112,100,82,65,14127,2146958966,2147554486,2147355446,2147453357,2147081481,2146988982,2147695460,2147128228,1491,-2,8,23657
1343923828,5807,176.7500000000000000,19.5767002105712900,36.5912017822265600,251.2162933349609400,103.2617034912109400,19.5714302062988280,29.3064193725585940,65,112,100,81,63,14128,2146959433,2147561508,2147370925,2147453083,2147090825,2146992886,2147701961,2147125238,1133,-3,8,42727
1343923883,5805,172.5700073242187500,19.6147003173828120,36.5951995849609400,251.3441009521484400,101.9895019531250000,19.6100196838378900,29.2842197418212900,68,113,100,83,64,14118,2146964205,2147569618,2147385947,2147453394,2147091785,2146999552,2147710582,2147127606,590,-2,8,50198
1343923938,5803,168.4499969482422000,19.6490001678466800,36.5938987731933600,251.9682006835937500,100.7042999267578100,19.6490097045898440,29.2406806945800780,75,113,102,83,64,14115,2146965046,2147580635,2147407926,2147451538,2147092324,2147009837,2147721051,2147127204,245,-2,8,58644
1343923993,5803,164.4199981689453000,19.6930999755859380,36.6006011962890600,252.0852966308593800,99.3777465820312500,19.6892604827880860,29.2183799743652340,74,114,100,82,64,14114,2146966948,2147591835,2147432960,2147454985,2147087680,2147010678,2147733001,2147135680,657,-2,8,38002
1343924048,5806,160.3800048828125000,19.7577991485595700,36.6092987060546900,251.1210937500000000,97.1506729125976600,19.7568397521972660,29.2318992614746100,76,114,99,81,66,14113,2146969883,2147608585,2147465362,2147452955,2147084726,2147017526,2147740745,2147131401,1197,-2,8,17869
1343924127,5806,155.3099975585937500,19.8125991821289060,36.6090011596679700,251.0502014160156200,95.4689331054687500,19.8078899383544920,29.2135601043701170,74,112,101,82,67,14116,2146977243,2147630994,2147503872,2147455808,2147096192,2147034944,2147761060,2147130578,1303,-2,8,44317
1343924206,5806,151.1100006103515600,19.9104995727539060,36.6180000305175800,251.2689056396484400,92.2564010620117200,19.9054298400878900,29.1628704071044920,70,109,99,82,65,14119,2146986020,2147656640,2147552566,2147452013,2147095478,2147044800,2147781549,2147131894,1889,-3,8,22607
1343924285,5805,147.2799987792968800,19.9976005554199220,36.6305007934570300,250.0077972412109400,89.4455337524414000,19.9908008575439450,29.1820602416992200,68,107,98,82,66,14122,2146990921,2147689289,2147609243,2147452909,2147099949,2147066541,2147812077,2147134290,1247,-2,8,15137
1343924364,5807,143.3500061035156200,20.0200004577636720,36.6347007751464840,248.7436981201172000,88.2901382446289000,20.0258998870849600,29.2230796813964840,67,104,99,81,66,14128,2147002706,2147733878,2147690020,2147448237,2147105883,2147095972,2147857188,2147136064,758,-2,8,26350
1343924445,5808,139.1900024414062500,20.1354007720947270,36.6557006835937500,245.9871063232422000,84.0948333740234400,20.1534004211425780,29.2920608520507800,63,104,97,82,66,14132,2147017206,2147783021,2147782409,2147453028,2147116041,2147127853,2147901184,2147144365,838,-2,8,51688
1343924524,5804,135.6300048828125000,20.2772998809814450,36.6789016723632800,242.2984924316406200,80.3304672241211000,20.2678508758544920,29.4105396270751950,60,103,97,81,67,14135,2147037138,2147838573,2147870381,2147453430,2147123529,2147157467,2147949211,2147143332,617,-2,8,8320
1343924615,5804,131.8699951171875000,20.3283004760742200,36.6861000061035160,239.9660034179687500,78.5264663696289000,20.3227100372314450,29.4940109252929700,61,105,101,81,67,14133,2147063753,2147907730,2147992557,2147458578,2147134619,2147208640,2148011675,2147148754,3321,-2,8,51102
1343924718,5803,127.4300003051757800,20.4929008483886720,36.7044982910156250,237.7274017333984400,73.2234725952148400,20.4840698242187500,29.5294208526611330,60,105,98,80,66,14135,2147113682,2148030628,2148201142,2147457773,2147165101,2147285412,2148120566,2147156086,2779,-2,8,20723
1343924799,5803,123.8099975585937500,20.6198997497558600,36.7071990966796900,235.5122985839843800,69.1310272216796900,20.6086692810058600,29.5802803039550780,67,110,100,82,66,14126,2147164105,2148164059,2148430637,2147459529,2147192018,2147371995,2148236918,2147162294,2219,-2,8,17086
1343924890,5807,119.6699981689453100,20.7089004516601560,36.6926002502441400,238.9022064208984400,66.1489334106445300,20.6994991302490230,29.3840904235839840,86,115,99,82,65,14108,2147246582,2148368128,2148775881,2147465417,2147224484,2147487808,2148403584,2147174354,1781,-2,9,23397
1343924981,5806,115.7500000000000000,20.8715991973876950,36.7117004394531250,237.9140014648437500,61.5340690612793000,20.8401393890380860,29.3709106445312500,86,114,99,83,66,14109,2147327497,2148564342,2149082413,2147468635,2147268790,2147591616,2148538541,2147184484,1937,-2,8,28512
1343925086,5805,112.0599975585937500,20.9902000427246100,36.7313995361328100,233.5933990478515600,57.0527610778808600,20.9768009185791000,29.5157203674316400,84,111,99,82,67,14105,2147397650,2148701833,2149276434,2147478134,2147293540,2147654427,2148624000,2147192594,2159,-3,8,54775
1343925237,5805,108.4700012207031200,21.0158996582031250,36.7140007019043000,233.9756927490234400,55.9051399230957000,21.0118103027343750,29.4828395843505860,93,117,100,83,67,14094,2147462957,2148761627,2149310043,2147476123,2147331894,2147673380,2148621330,2147195657,1473,-2,8,28654
1343925420,5808,103.4100036621093800,21.1168003082275400,36.7033004760742200,239.6334075927734400,52.3874397277832000,21.1191596984863280,29.1749591827392580,105,123,101,83,66,14071,2147591515,2148950208,2149539712,2147486400,2147379072,2147735570,2148690340,2147203282,452,-2,8,54822
1343925499,5806,99.8499984741211000,21.2409992218017580,36.7104988098144500,241.4071044921875000,48.6238708496093750,21.2340793609619140,29.0461692810058600,106,122,101,83,66,14065,2147705097,2149128886,2149773056,2147491510,2147421586,2147812150,2148773686,2147214080,202,-2,8,50721
1343925554,5804,97.6500015258789000,21.3299999237060550,36.7016983032226560,243.2543945312500000,46.5904388427734400,21.2961902618408200,28.9371395111084000,115,125,101,83,65,14062,2147798006,2149268882,2149944018,2147501220,2147456502,2147856914,2148831606,2147217956,764,-2,8,37498
1343925609,5803,95.8399963378906200,21.3519992828369140,36.6976013183593750,243.4201965332031200,45.1072502136230500,21.3415107727050780,28.9108695983886720,122,122,100,84,66,14059,2147877787,2149383442,2150071405,2147505344,2147486710,2147892681,2148864914,2147219483,1102,-3,8,17949
1343925664,5805,94.1399993896484400,21.4036006927490230,36.6940994262695300,245.1524047851562500,43.7284202575683600,21.3836498260498050,28.8161296844482420,123,122,100,83,65,14052,2147987684,2149539501,2150253970,2147511552,2147528886,2147953380,2148919360,2147230573,1192,-2,8,23357
1343925742,5804,91.3499984741211000,21.4062004089355470,36.6381988525390600,253.2826995849609400,42.7282218933105500,21.4142208099365230,28.4489097595214840,117,119,102,83,65,14042,2148239963,2149914907,2150699538,2147529069,2147623771,2148094144,2149082770,2147246491,641,-2,8,29509
1343925797,5807,88.5599975585937500,21.4692001342773440,36.6119003295898440,257.4418029785156000,41.5508003234863300,21.4502105712890620,28.2580795288085940,116,129,103,84,65,14019,2148604370,2150480256,2151391378,2147553444,2147767780,2148336978,2149348864,2147274925,209,-2,9,41027
1343925852,5806,85.5999984741211000,21.5914001464843750,36.6082992553710940,258.6081848144531000,36.8634605407714840,21.5935802459716800,28.1510200500488280,130,126,104,84,65,14020,2149069549,2151203675,2152244982,2147588498,2147958582,2148626688,2149677403,2147307419,669,-2,8,15041
1343925907,5805,82.7799987792968800,21.7483997344970700,36.5931015014648440,259.4606933593750000,32.0284881591796900,21.7415695190429700,28.0553703308105470,127,129,101,86,64,14018,2149572928,2151955986,2153093348,2147624603,2148148361,2148911232,2150006637,2147344630,559,-3,8,35649
1343925962,5803,80.6399993896484400,21.8199005126953120,36.5646018981933600,261.8893127441406000,29.8716297149658200,21.8076190948486330,27.9287490844726560,105,128,101,85,64,14028,2150004681,2152575552,2153769581,2147660059,2148335341,2149173174,2150280411,2147371227,97,-2,8,28071
1343926017,5805,79.1200027465820300,21.9081993103027340,36.5460014343261700,263.4213867187500000,27.1912593841552730,21.8897495269775400,27.8329792022705080,102,132,104,85,65,14029,2150365010,2153093101,2154347017,2147688109,2148492525,2149409929,2150531026,2147399387,3500,-2,9,33598
1343926134,5807,77.9599990844726600,22.0200996398925780,36.5453987121582000,264.9743957519531000,23.2969894409179700,22.0091209411621100,27.7220191955566400,99,132,101,85,64,14011,2150666523,2153508763,2154774326,2147709101,2148633947,2149605878,2150731008,2147420315,597,-3,8,61750
1343926464,5807,74.8499984741211000,22.2028999328613280,36.5481986999511700,265.2546081542969000,17.5062808990478500,22.1867809295654300,27.6395092010498050,94,131,104,86,63,14024,2152560018,2156215030,2157782866,2147859483,2149527277,2150901394,2152085440,2147561252,3533,-3,9,58016
1343926519,5803,72.7300033569336000,22.3528995513916000,36.5718994140625000,264.2959899902344000,12.8840398788452150,22.3287105560302730,27.6213798522949220,94,128,103,85,62,14024,2153792621,2157868690,2159568832,2147974290,2150132617,2151743314,2152890358,2147646738,3207,-2,8,4276
1343926574,5804,70.8000030517578100,22.4736995697021500,36.5900993347168000,262.8475952148437500,8.8509941101074220,22.4526500701904300,27.6305694580078120,94,125,103,86,63,14025,2154665280,2158997138,2160722413,2148057316,2150593682,2152343515,2153463387,2147710564,2828,-3,8,44423
1343926629,5804,69.1800003051757800,22.5007991790771500,36.5741004943847660,262.1034851074219000,7.4673409461975100,22.4951896667480470,27.6437492370605470,93,126,102,84,63,14025,2156075035,2160861897,2162712210,2148195428,2151290797,2153298916,2154375232,2147812050,2491,-2,8,45052
1343926708,5805,66.7600021362304700,22.7481994628906250,36.5940017700195300,260.3758850097656000,0.2455741018056870,22.7173995971679700,27.6257305145263670,91,125,103,84,62,14019,2159288109,2165008996,2167059483,2148534253,2152941961,2155488237,2156448210,2148049462,1969,-2,8,55780
1343926763,5807,64.6500015258789000,22.8512992858886720,36.5867996215820300,259.4043884277344000,-3.3523769378662110,22.8282203674316400,27.6214408874511720,87,126,102,85,61,14018,2160021037,2165629302,2167385609,2148608356,2153461924,2156012141,2156750198,2148087469,1863,-2,8,56748
1343926818,5805,62.8300018310546900,22.9192008972167970,36.5947990417480500,259.3396911621094000,-5.0732641220092770,22.8812503814697270,27.6029396057128900,84,128,103,84,61,14020,2163158674,2169540736,2171400228,2148953545,2155207469,2158221266,2158720841,2148323730,1551,-2,8,177
1343926873,5804,61.2700004577636700,22.9368991851806640,36.5486984252929700,259.7762145996094000,-6.3990888595581055,22.9221191406250000,27.5688095092773440,86,126,103,85,61,14006,2165263862,2171981787,2173744731,2149186953,2156477394,2159708406,2159969389,2148469686,1219,-2,8,25051
1343926976,5805,59.5699996948242200,22.9867000579834000,36.4494018554687500,263.9000854492187500,-7.9541630744934080,22.9700603485107420,27.3823204040527340,86,127,103,86,60,14016,2169221284,2176769508,2178538788,2149617636,2158883940,2162608786,2162472073,2148764370,533,-2,8,53590
1343927090,5802,57.2599983215332000,23.2856006622314450,36.4220008850097660,264.1590881347656000,-17.4631996154785160,23.2635707855224600,27.2560997009277340,84,129,104,87,62,14012,2173978304,2182440630,2184222546,2150266779,2162268617,2166556489,2165756690,2149157979,2744,-3,8,65433
1343927181,5805,55.3699989318847660,23.5349006652832030,36.4221000671386700,262.5234069824219000,-25.6506404876709000,23.5167407989501950,27.2222995758056640,83,130,103,87,61,14010,2177825984,2187008566,2188755812,2150845522,2164933860,2169534948,2168234706,2149478619,1468,-3,8,63167
1343927359,5806,53.0600013732910160,23.5879993438720700,36.4210014343261700,261.7182922363281000,-28.0243606567382800,23.5902099609375000,27.2258396148681640,83,127,103,86,62,14025,2184224521,2194824868,2196806189,2152031725,2169047771,2174384539,2172414272,2150084955,1348,-3,9,65315
1343927404,5806,51.7099990844726560,23.7707004547119140,36.4226989746093750,260.8611145019531000,-33.4586601257324200,23.7585601806640620,27.1945590972900400,82,126,104,89,59,14016,2184096630,2194296274,2195949403,2152036306,2169689993,2174754770,2172447113,2150076708,1145,-3,8,55839
1343927509,5806,49.9700012207031250,24.0506000518798830,36.4138984680175800,259.0448913574219000,-42.1699981689453100,24.0288391113281250,27.1625003814697270,83,125,104,86,61,14028,2196778130,2210289261,2212871826,2154307117,2178924553,2185554907,2181617371,2151261933,512,-2,8,39095
1343927733,5801,47.6599998474121100,24.3083992004394530,36.3623008728027340,257.4198913574219000,-51.0193290710449200,24.3039302825927730,27.1215705871582030,77,127,104,87,63,14026,2205534116,2220187126,2222345746,2156164653,2188185517,2195176731,2188726025,2152202989,1542,-2,8,58143
1343927802,5810,45.9199981689453100,24.4615001678466800,36.3317985534668000,256.6449890136719000,-55.0534515380859400,24.4295101165771500,27.1044101715087900,79,129,104,86,61,14023,2209015744,2223857782,2225846409,2157320073,2191764973,2198665051,2191217728,2152671305,1553,-3,9,61967
1343927966,5808,43.7099990844726560,24.7213993072509770,36.3143997192382800,254.5462036132812500,-64.3063888549804700,24.7180004119873050,27.0786209106445300,79,133,107,88,59,14007,2205728557,2218754944,2219741430,2157067913,2190127177,2195889362,2188215862,2152428534,1915,-2,9,3157
1343928274,5804,41.9500007629394500,25.4183998107910160,36.3044013977050800,247.8339996337890600,-86.7059631347656200,25.4190006256103500,27.0882892608642580,76,133,104,88,61,14008,2184480402,2191763748,2191092288,2153314633,2175650166,2178404992,2172872219,2150414528,1492,-3,8,17008
1343928595,5807,39.7900009155273440,26.2033996582031250,36.2459983825683600,243.0962982177734400,-110.9798965454101600,26.1831493377685550,26.9964008331298830,76,134,106,88,60,13988,2182875529,2189349833,2188393874,2153478765,2175404946,2177568393,2171868626,2150410779,1197,-3,8,51864
1343928976,5807,37.8899993896484400,26.8239994049072270,36.2256011962890600,238.3484954833984400,-130.1627960205078000,26.7905406951904300,26.9700794219970700,78,139,109,88,59,13992,2193311113,2201418605,2200359213,2156087378,2185130550,2187632950,2179539757,2151595894,670,-3,8,26824
1343929260,5806,35.5600013732910160,26.9330005645751950,36.2321014404296900,236.8146057128906200,-134.9962005615234400,26.9440994262695300,26.9787502288818360,73,135,104,88,59,14005,2191233874,2198492745,2197079350,2156419318,2185016713,2186746861,2178411090,2151620809,224,-2,8,13445
1343929317,5804,33.5900001525878900,27.0121994018554700,36.2294006347656250,236.4535064697265600,-136.9897003173828000,27.0074901580810550,26.9704895019531250,73,133,106,88,59,14001,2192765741,2200046299,2198577892,2157459355,2187520841,2188997732,2179891675,2151990445,644,-2,8,2801